Temp
64 64 64 64 64 64 64 64 64 64 64 64 64 64 64 64 65 85 91 99 99 85 86 105 107 104 105 100 85 84 70 71 90 90 91 101 96 101 104 98 100 101 95 96 98
63 63 63 63 63 63 63 63 63 63 63 63 64 64 64 64 81 92 99 87 86 85 102 103 102 104 98 82 77 71 68 79 99 100 96 100 98 98 97 96 94 95 98 98 98
63 63 63 63 63 63 63 63 63 63 63 63 63 64 64 68 87 100 85 85 85 89 104 107 106 103 95 75 73 73 72 88 100 104 104 100 98 103 98 93 95 91 92 95 95
62 62 62 62 62 62 62 63 63 62 62 63 63 64 65 81 82 103 85 85 86 102 105 104 102 96 93 68 77 76 84 95 102 104 100 100 103 100 100 99 102 98 96 95 94
62 61 61 62 62 62 62 62 62 62 62 62 63 64 82 89 95 102 84 87 102 103 102 103 98 97 91 94 89 83 92 98 105 103 104 105 100 100 99 103 103 101 97 95 95
61 61 61 61 61 61 61 61 61 61 62 63 64 63 83 85 112 108 105 104 105 105 105 106 102 103 85 90 84 96 102 103 105 103 103 100 100 101 101 104 99 98 96 96 96
60 60 60 60 60 60 60 60 60 61 62 63 64 78 89 93 113 113 110 108 109 109 105 109 108 101 101 85 88 92 90 90 103 103 100 103 96 95 103 102 97 96 97 97 98
59 59 59 59 59 59 59 59 60 61 63 65 66 84 87 112 116 111 111 109 112 113 111 111 109 103 100 101 94 87 74 73 92 100 91 97 81 99 104 100 96 97 97 97 98
59 59 59 58 59 58 58 58 60 63 65 68 76 87 90 98 105 111 111 105 109 110 110 110 105 99 101 93 88 82 59 69 83 78 85 74 71 100 105 101 97 97 97 98 98
59 59 58 58 58 58 58 59 69 67 73 87 92 88 97 98 107 109 112 110 105 104 102 100 98 93 95 91 69 69 69 77 77 80 84 73 78 99 104 102 99 99 98 97 98
59 59 58 58 58 57 63 89 86 82 90 91 95 94 101 107 112 106 110 106 105 100 90 97 90 86 81 85 77 70 68 75 88 100 84 79 86 96 103 105 100 100 99 98 99
58 58 58 58 57 57 61 85 97 99 86 96 97 100 106 109 98 103 110 97 96 89 94 88 85 84 85 88 80 67 70 73 92 99 97 92 94 101 103 102 105 103 100 101 101
58 58 57 57 57 64 84 93 105 104 87 93 100 99 101 105 97 98 104 99 94 90 92 88 91 85 82 83 84 85 84 82 88 96 99 96 92 95 101 104 105 107 106 105 103
58 57 57 56 64 88 91 104 105 105 78 86 92 99 102 103 94 107 108 100 95 89 92 92 94 84 79 80 93 80 90 88 89 88 83 93 75 85 97 98 102 104 105 106 105
57 57 57 55 67 83 100 105 105 99 62 94 96 110 104 96 98 98 109 101 91 93 92 71 90 89 83 90 95 84 86 92 94 91 87 87 83 83 96 94 98 102 103 105 107
57 57 56 76 71 84 98 103 98 75 65 87 95 93 93 96 96 101 100 104 102 94 95 93 99 96 93 95 96 98 92 93 94 91 80 88 85 82 91 94 96 100 102 103 105
56 55 56 70 83 96 102 94 73 67 91 86 88 92 91 90 91 94 92 90 85 80 82 90 90 95 98 90 95 94 88 77 75 77 77 86 88 87 96 99 99 99 100 103 106
55 55 63 69 86 87 91 81 65 81 83 96 93 93 86 91 90 92 90 86 92 91 85 81 77 90 95 89 87 89 88 78 68 67 60 72 74 89 99 101 102 102 101 103 104
54 81 83 87 85 91 84 69 72 81 92 91 91 86 86 90 91 89 89 87 91 93 82 82 80 92 96 95 94 87 82 93 81 59 61 59 70 76 99 98 100 99 100 99 100
63 78 88 100 94 88 77 67 81 91 94 91 81 88 82 87 87 88 87 93 91 96 98 90 77 87 79 80 95 90 94 80 82 66 55 70 65 72 88 93 96 96 97 98 99
68 79 97 101 95 82 71 76 84 92 94 87 84 85 87 88 89 88 87 94 97 96 98 94 82 67 80 76 84 85 81 84 85 83 74 73 77 92 92 94 94 96 98 98 99
78 76 97 98 77 80 76 82 77 91 96 91 90 88 86 89 88 89 88 93 101 100 89 95 89 78 73 93 95 91 84 84 77 75 82 80 81 99 97 98 99 98 98 100 100
71 84 96 94 72 77 83 84 88 89 90 90 87 89 91 87 81 88 92 100 102 98 93 96 86 77 78 85 91 86 87 88 89 89 79 76 81 99 100 99 100 95 97 95 95
71 76 85 86 86 81 81 82 83 93 90 91 89 92 88 85 89 85 89 96 99 99 77 90 89 83 75 80 86 83 88 90 89 80 81 83 86 90 93 95 94 92 93 93 93
75 79 82 77 80 81 83 84 83 82 90 90 85 87 85 80 83 84 89 93 95 81 93 94 82 85 88 90 87 90 89 91 86 87 82 86 88 88 89 94 93 94 91 90 89
72 70 77 75 80 81 75 80 81 85 86 83 82 87 87 81 84 82 89 88 88 93 89 93 80 84 81 88 89 87 90 91 90 90 89 89 87 98 95 98 92 90 89 86 86
75 76 73 68 78 78 79 80 82 86 88 91 89 86 84 88 92 95 97 97 96 91 88 87 83 78 73 84 85 78 86 88 89 91 89 82 89 93 91 90 88 88 88 87 85
MSLP
1015.04 1014.68 1014.27 1013.76 1013.38 1013.06 1012.67 1012.28 1011.84 1011.46 1011.06 1010.56 1010.10 1009.73 1009.39 1008.92 1007.88 1006.77 1004.65 1002.64 1002.11 1002.10 1002.24 1001.21 1000.52 1000.35 1000.50 1000.59 1002.33 1003.39 1004.81 1001.75 996.87 995.67 995.98 995.76 996.31 997.25 997.91 998.44 999.12 999.56 1001.03 1002.70 1004.16
1015.11 1014.67 1014.21 1013.86 1013.37 1012.94 1012.55 1012.14 1011.70 1011.27 1010.84 1010.41 1009.92 1009.58 1009.26 1008.86 1007.27 1004.48 1002.11 1001.92 1002.06 1002.08 1001.87 1000.37 999.46 999.43 999.67 1002.38 1002.24 1004.30 1004.20 999.46 996.03 995.12 995.27 995.35 995.99 996.85 997.42 998.33 999.46 1000.30 1001.74 1003.38 1004.30
1015.19 1014.74 1014.29 1013.85 1013.36 1012.87 1012.41 1011.98 1011.53 1011.11 1010.65 1010.22 1009.81 1009.46 1009.18 1008.66 1005.81 1001.41 1001.45 1001.77 1001.93 1001.91 1001.44 1000.36 999.78 999.37 999.81 1001.71 1003.12 1003.38 1002.64 998.52 995.90 994.95 994.93 995.28 995.84 995.83 996.47 997.46 999.11 1000.65 1002.18 1003.46 1004.29
1015.29 1014.77 1014.27 1013.86 1013.38 1012.83 1012.30 1011.90 1011.40 1010.93 1010.49 1010.04 1009.62 1009.27 1008.90 1007.72 1003.68 1001.09 1001.48 1001.74 1001.80 1001.69 1000.98 999.96 999.62 999.24 998.63 1002.14 1001.05 1002.04 1001.28 997.87 995.93 995.15 994.74 994.71 995.36 995.61 996.45 997.36 998.70 1000.41 1002.04 1003.14 1003.97
1015.29 1014.85 1014.39 1013.87 1013.27 1012.70 1012.16 1011.66 1011.19 1010.76 1010.33 1009.91 1009.51 1009.17 1007.65 1005.48 1001.70 1001.00 1001.44 1001.66 1001.76 1001.41 1000.39 999.03 999.08 998.45 998.42 998.52 999.96 999.29 998.94 996.45 995.35 995.14 994.87 994.80 995.38 995.93 997.01 997.74 999.07 1000.48 1001.96 1002.95 1003.69
1015.36 1014.85 1014.33 1013.73 1013.16 1012.60 1011.97 1011.39 1010.91 1010.44 1010.06 1009.68 1009.41 1009.27 1007.64 1003.49 999.65 1000.48 1000.95 1001.10 1000.78 1000.32 999.18 998.41 997.79 997.30 997.47 999.28 1000.44 998.00 996.40 995.55 995.23 995.39 994.94 995.05 995.60 996.24 997.28 998.09 999.46 1000.63 1001.74 1002.65 1003.27
1015.43 1014.86 1014.26 1013.67 1013.08 1012.43 1011.75 1011.06 1010.48 1009.96 1009.56 1009.34 1009.25 1008.65 1005.64 1001.74 999.50 999.62 1000.04 999.86 999.87 999.10 998.13 997.80 997.76 997.20 997.09 998.79 998.29 998.56 997.67 996.78 995.21 995.27 995.35 995.20 995.65 996.27 997.17 998.30 999.48 1000.43 1001.28 1002.05 1002.67
1015.40 1014.82 1014.23 1013.63 1012.99 1012.27 1011.51 1010.67 1009.89 1009.33 1008.99 1008.84 1008.88 1007.79 1003.58 999.49 999.10 999.14 999.26 999.03 998.99 998.51 998.00 997.78 998.25 998.08 997.59 998.40 998.83 999.98 1000.22 999.84 996.57 996.17 998.01 996.76 996.36 996.27 996.98 998.06 999.10 999.87 1000.55 1001.33 1001.92
1015.29 1014.70 1014.08 1013.47 1012.81 1012.06 1011.08 1009.96 1009.15 1008.63 1008.46 1008.40 1008.17 1006.21 1001.65 999.64 999.18 998.68 998.66 998.42 998.32 998.38 998.18 998.27 998.62 998.44 997.49 997.62 998.57 1000.77 1001.90 1000.90 999.38 999.14 999.63 999.87 998.08 996.10 996.35 997.09 998.17 999.24 999.99 1000.66 1001.30
1015.14 1014.50 1013.87 1013.24 1012.59 1011.84 1010.57 1008.66 1007.96 1008.16 1007.80 1007.12 1005.79 1004.46 1000.19 998.58 998.13 998.11 998.17 998.08 997.96 998.04 998.07 998.14 998.16 998.09 997.89 997.93 1000.63 1002.58 1001.85 1000.82 999.67 999.53 999.83 1000.39 997.74 995.74 995.50 995.80 996.83 997.86 999.15 999.97 1000.51
1014.98 1014.38 1013.69 1012.91 1012.29 1011.83 1010.44 1007.63 1007.47 1006.68 1005.29 1002.98 1001.04 1000.17 997.98 997.96 997.46 997.65 997.79 997.69 997.60 997.64 997.55 997.41 997.55 997.51 999.15 1000.05 1002.32 1003.56 1002.86 1001.29 998.14 996.39 997.69 997.76 996.35 995.26 994.56 994.66 995.43 996.47 997.75 998.95 999.62
1014.89 1014.23 1013.41 1012.48 1011.75 1011.40 1011.20 1007.24 1003.23 1002.60 1001.97 1001.02 1000.21 999.10 997.70 996.99 997.25 997.23 997.52 997.58 997.32 997.28 997.50 997.68 997.25 998.71 999.80 999.82 1001.79 1001.32 1000.83 999.51 996.77 995.41 995.12 995.57 994.63 993.93 993.92 994.27 994.28 994.92 996.19 997.39 998.59
1014.77 1014.07 1013.16 1011.97 1010.84 1010.00 1007.58 1004.74 1002.99 1002.43 1001.25 999.10 998.24 997.72 997.38 997.15 996.84 996.74 997.13 997.18 996.91 997.00 996.76 996.70 997.02 998.18 999.27 999.49 998.97 997.75 998.16 997.16 995.63 994.83 994.16 993.92 993.82 993.48 993.67 994.03 994.27 994.37 994.87 995.91 997.23
1014.60 1013.95 1013.11 1011.70 1010.23 1007.35 1005.03 1002.99 1002.88 1002.28 1000.56 996.95 996.29 995.98 996.54 996.69 996.67 996.14 996.43 996.88 996.58 996.40 996.62 996.45 996.76 998.10 998.54 997.96 996.50 996.45 996.82 996.07 995.51 994.46 993.64 994.09 993.85 993.58 993.15 993.58 993.54 994.04 994.54 994.89 995.86
1014.26 1013.74 1013.07 1013.19 1010.70 1006.95 1003.42 1003.03 1002.75 1002.03 999.02 993.48 994.08 994.52 995.45 995.95 996.04 995.85 995.80 996.41 996.01 995.77 996.56 998.59 996.33 997.01 997.71 996.31 995.44 996.45 998.50 995.88 994.14 993.58 993.85 993.37 993.03 992.87 992.93 992.91 993.24 993.92 994.85 995.12 995.54
1013.83 1013.43 1013.05 1010.05 1010.10 1006.11 1004.61 1003.46 1002.78 1001.23 996.73 993.95 994.14 994.45 994.79 995.18 995.52 995.05 995.37 996.04 995.76 995.53 995.91 995.16 995.74 995.97 996.09 996.21 995.42 995.26 995.24 994.58 994.11 993.94 993.36 992.61 993.09 992.84 992.27 992.69 993.39 994.24 995.07 995.76 995.96
1013.10 1012.63 1012.96 1011.32 1006.72 1004.89 1003.82 1003.34 1001.91 999.09 995.06 993.56 993.64 994.28 994.31 994.47 994.97 994.74 994.92 995.23 995.32 995.10 994.65 994.80 995.14 995.93 995.66 995.93 995.74 995.62 995.31 994.48 994.52 994.35 994.14 993.60 992.58 992.31 992.36 992.84 993.65 994.36 995.20 995.89 995.86
1012.02 1010.96 1009.42 1008.77 1006.45 1006.20 1004.86 1003.04 1000.31 996.68 995.04 993.04 992.85 993.16 993.81 993.89 994.31 994.24 994.08 994.60 995.04 994.75 994.48 994.32 994.75 995.43 995.61 996.02 995.32 995.14 995.19 994.49 994.55 996.32 998.11 997.13 994.69 992.64 992.61 993.24 993.84 994.45 995.49 996.13 996.36
1011.01 1007.57 1006.53 1005.16 1005.99 1005.37 1003.97 1001.59 998.76 996.23 994.10 993.10 992.89 992.83 992.92 993.39 993.33 993.83 993.30 993.75 993.96 994.29 994.09 993.81 994.24 995.11 995.00 995.61 995.71 994.99 994.75 994.43 994.80 998.86 1000.36 1000.55 997.99 996.47 993.05 993.06 993.63 994.24 995.21 996.14 997.02
1010.70 1006.93 1003.70 1002.73 1004.23 1004.43 1003.07 1000.21 997.86 996.00 994.47 994.39 993.67 992.64 992.39 992.33 992.70 992.70 992.73 993.07 993.06 993.30 993.83 993.51 994.22 995.58 996.30 997.12 995.27 995.31 994.89 994.72 994.94 996.17 998.01 996.93 996.66 994.34 993.33 993.11 993.76 994.60 995.62 996.12 996.98
1009.84 1005.05 1001.07 1002.11 1003.31 1003.02 1001.28 999.45 997.71 996.33 995.32 994.94 994.46 993.36 992.34 991.62 991.76 991.73 992.02 992.01 992.13 992.14 992.80 993.36 994.41 996.81 998.13 997.86 995.00 995.27 994.92 994.93 995.38 994.87 994.43 993.79 993.45 992.88 993.40 993.85 994.11 994.57 995.79 996.58 997.29
1007.83 1003.46 1001.29 1001.98 1002.19 1001.23 999.98 998.96 997.44 995.69 994.85 995.02 995.05 994.17 993.17 992.23 991.40 991.07 990.93 990.89 990.89 991.24 991.68 992.61 993.37 994.67 996.17 994.96 994.38 994.38 994.29 994.76 994.65 994.36 994.00 993.47 992.24 991.96 992.25 993.15 994.01 994.64 996.00 996.74 997.42
1007.96 1002.81 1001.22 1001.47 1000.70 999.65 998.96 998.07 996.86 995.75 994.90 994.54 994.86 994.75 994.02 993.16 992.50 991.54 990.51 990.43 990.48 990.96 991.46 992.49 993.51 993.36 994.00 994.51 993.58 993.43 993.46 993.88 993.86 993.41 993.06 992.62 992.00 991.80 992.39 993.00 993.75 995.02 996.15 997.31 998.18
1008.48 1002.64 1000.79 1001.03 1000.30 999.02 997.70 996.69 995.96 995.24 994.92 994.97 994.88 994.51 994.26 993.76 993.23 992.42 991.48 990.95 991.42 991.05 992.38 992.41 992.81 992.50 992.59 992.49 993.18 992.37 992.21 992.53 992.78 992.71 992.56 991.99 991.68 991.97 992.40 993.14 994.36 995.91 997.17 998.42 999.30
1007.71 1002.91 1001.56 999.62 999.35 998.98 998.11 996.52 995.22 994.85 995.21 995.58 995.19 994.68 994.39 994.16 993.67 992.92 992.32 991.45 991.99 992.59 992.89 993.04 993.15 993.07 992.43 992.05 993.11 992.06 991.98 991.48 992.21 992.53 992.47 992.18 991.92 992.43 993.06 994.11 995.04 996.20 997.50 998.80 999.79
1007.47 1006.12 1003.82 1002.26 1000.25 998.63 997.43 996.87 995.88 994.80 994.74 994.95 995.21 994.79 994.82 994.50 994.03 993.14 992.33 992.21 991.86 992.44 993.31 993.49 993.47 993.78 993.11 992.52 991.88 991.55 991.58 991.35 991.54 991.97 992.45 992.60 992.55 992.88 993.87 994.42 995.39 996.63 997.93 999.60 1000.95
1009.27 1008.42 1006.54 1003.24 1000.92 999.14 997.84 997.06 996.25 995.75 994.91 994.33 994.44 994.58 994.58 994.05 994.01 993.54 992.73 992.20 991.79 991.84 992.64 993.35 993.59 993.92 993.57 993.19 992.42 991.86 991.46 991.74 992.06 992.36 992.88 993.37 993.67 993.91 994.57 995.52 996.36 997.41 999.01 999.88 1000.60
Wind_Speed
16 16 16 17 16 16 16 16 16 15 15 16 16 15 15 15 19 8 12 7 11 7 3 14 9 11 10 9 8 4 3 12 8 15 13 15 15 12 16 9 8 13 21 24 24
17 17 17 17 17 17 16 16 16 16 16 16 16 15 14 14 11 17 13 8 8 6 10 14 10 8 8 12 5 8 2 10 12 7 15 7 16 13 14 14 12 22 25 24 23
18 18 18 18 18 18 17 17 17 16 17 17 16 15 13 15 11 2 8 9 8 8 14 19 7 11 10 15 7 9 8 17 11 13 17 11 11 10 12 15 16 21 21 24 23
18 19 19 19 19 19 19 18 18 17 17 17 16 16 13 7 6 6 10 7 7 9 14 19 6 15 18 18 26 9 20 21 14 7 6 15 12 11 15 15 20 23 23 22 22
19 19 19 19 19 20 20 19 18 18 17 17 15 14 10 9 15 9 10 8 9 12 15 15 12 16 17 11 13 12 24 15 14 3 11 7 17 16 14 18 19 22 22 22 20
19 19 19 20 20 20 20 19 19 18 17 16 13 12 7 16 3 12 13 13 14 15 19 11 10 16 14 3 6 17 11 6 14 11 3 18 10 18 15 18 19 19 20 19 20
20 20 20 21 21 21 21 21 21 20 18 14 10 7 12 20 6 12 13 14 15 17 18 9 11 15 16 17 24 14 15 20 12 12 15 11 15 17 17 18 19 18 18 19 19
21 21 21 22 22 23 23 23 23 21 16 13 7 8 10 17 11 11 13 15 15 14 15 8 6 14 15 4 18 6 11 11 16 17 17 5 5 18 17 18 17 19 17 17 19
21 22 22 22 22 23 24 26 23 17 11 6 7 8 17 4 12 14 14 16 13 14 11 7 10 14 19 15 6 6 3 21 18 26 10 17 12 16 17 19 17 16 16 16 17
22 23 24 23 22 23 27 28 7 10 8 9 11 10 21 16 13 15 15 18 14 15 12 12 13 13 14 13 4 6 5 12 14 26 23 2 19 12 16 21 20 19 17 16 17
22 23 24 23 23 21 18 6 6 7 11 15 14 14 12 21 14 15 15 18 15 11 14 15 12 14 13 11 22 5 17 27 23 17 29 35 18 17 13 12 22 20 19 17 17
22 23 25 25 25 20 10 8 11 11 13 22 22 21 20 8 10 15 17 14 15 15 16 12 12 12 6 2 23 31 25 33 19 5 6 17 12 9 11 2 8 19 20 20 18
22 23 24 27 29 11 13 17 14 12 10 19 22 22 20 10 16 17 19 19 15 17 17 16 6 16 13 7 14 23 16 12 4 5 11 7 9 12 13 8 10 2 16 20 20
23 23 22 30 7 10 12 15 7 10 9 19 26 24 24 17 18 17 21 19 19 19 19 14 13 16 11 24 21 3 9 5 7 14 8 6 2 5 16 13 13 14 11 14 19
23 20 21 12 14 9 9 5 7 6 8 5 22 11 24 25 18 20 20 21 22 19 9 27 13 14 17 19 17 3 20 25 14 12 10 14 11 8 12 15 10 12 5 5 3
23 20 20 9 9 17 15 14 9 8 15 8 10 11 21 25 23 18 19 20 20 22 18 21 6 16 15 15 21 10 9 13 9 11 12 18 17 19 16 14 13 11 9 3 2
25 22 13 10 10 13 9 8 7 11 13 10 15 15 18 22 25 24 23 22 21 18 18 20 12 16 7 14 19 10 14 9 11 11 8 12 10 15 16 15 13 10 11 4 3
28 30 10 15 12 14 10 9 12 13 20 14 6 19 21 22 22 24 22 21 24 23 15 17 12 18 13 16 15 14 16 14 12 5 9 24 6 6 20 17 15 13 11 7 8
33 8 6 9 17 12 9 13 13 17 12 10 8 13 17 20 16 24 22 22 24 25 22 18 17 20 25 17 18 15 17 21 22 13 3 11 9 30 15 19 16 18 12 13 9
8 10 14 15 16 9 10 18 20 25 14 8 11 7 14 20 23 24 23 22 24 26 24 24 6 9 8 17 19 17 15 13 12 10 7 15 21 17 18 16 15 15 11 14 14
6 7 11 13 12 9 13 19 21 26 18 5 14 18 17 15 21 22 23 22 24 24 26 24 10 4 6 34 18 13 14 12 15 17 12 10 7 16 11 12 13 17 13 14 14
7 7 11 11 10 10 14 22 22 22 16 11 13 15 14 17 13 20 20 23 20 23 21 21 15 12 15 22 16 17 13 12 12 13 15 15 14 13 19 18 11 17 12 12 13
7 9 9 10 10 13 19 23 24 23 19 10 11 17 15 15 13 15 13 20 14 14 12 17 17 16 16 17 17 19 18 19 23 19 16 14 6 13 12 11 11 18 14 11 14
7 6 8 9 13 20 17 19 21 22 11 13 17 16 19 11 14 9 13 10 5 6 8 2 12 14 14 17 14 19 21 17 17 12 14 14 14 12 13 10 17 14 13 12 11
6 8 17 5 13 17 20 21 16 18 15 16 17 17 14 13 14 16 14 12 9 3 5 7 15 18 19 17 12 14 19 23 17 17 18 16 14 11 9 5 17 15 15 13 12
8 8 13 14 19 14 10 18 20 16 17 15 17 15 18 17 18 16 17 14 13 12 10 12 14 16 20 19 20 21 12 16 10 8 11 12 13 10 13 9 19 15 14 13 10
10 12 9 10 15 12 11 16 17 16 19 13 12 15 17 16 9 16 19 18 14 14 13 14 12 12 15 19 18 15 12 11 16 10 8 11 8 12 11 9 11 12 11 12 14
Wind_Direction
351 348 345 344 340 336 332 328 325 322 318 314 316 318 317 315 302 236 258 252 191 194 235 266 225 243 228 248 104 91 179 236 77 113 119 129 113 80 107 139 107 80 137 141 150
350 347 347 342 338 334 330 326 323 322 319 316 316 318 320 321 288 265 243 131 149 204 243 246 249 204 231 79 33 54 260 274 87 128 105 86 107 150 130 123 108 89 115 137 153
349 347 343 341 338 333 329 325 320 320 317 314 315 316 318 312 279 234 113 146 175 206 250 275 292 277 262 58 278 167 233 282 69 70 116 135 129 183 140 145 133 132 137 151 158
347 345 342 339 335 332 327 323 320 318 314 313 313 315 313 265 296 109 158 160 167 235 253 262 256 268 270 153 217 166 253 266 137 121 331 107 133 79 66 94 126 139 149 158 165
346 342 338 336 334 331 324 320 316 313 310 309 310 321 305 247 254 136 159 168 204 222 243 239 232 236 262 314 178 260 169 223 118 241 120 120 107 103 103 106 120 136 154 164 171
343 340 338 336 333 329 322 316 312 308 305 304 305 312 253 266 263 150 194 180 227 216 243 252 269 291 126 292 96 244 271 174 155 124 181 118 136 111 117 112 124 142 158 169 176
342 339 338 335 331 327 320 314 310 305 301 296 295 275 266 253 296 158 216 205 213 232 248 254 323 305 305 102 259 288 327 2 150 174 163 206 155 118 135 129 139 153 163 171 180
339 336 334 331 328 323 316 309 306 300 292 288 255 244 263 287 237 224 216 218 223 232 269 345 295 273 288 229 215 128 25 339 282 93 11 123 119 128 149 140 154 157 165 171 181
337 334 331 327 324 320 313 305 298 291 276 260 213 232 260 168 227 237 220 224 218 233 231 286 266 259 266 243 199 72 135 266 288 48 301 49 300 142 169 153 163 162 167 174 181
335 333 328 323 321 321 316 292 273 301 218 211 260 266 242 236 216 219 208 228 207 220 235 233 247 241 227 250 79 337 289 250 232 174 147 82 250 189 186 167 164 168 169 181 183
334 329 325 319 318 323 331 303 217 189 230 228 201 215 276 214 204 198 199 221 205 222 234 235 239 237 60 62 123 79 280 264 239 192 143 164 220 176 175 195 164 169 170 183 188
330 327 323 317 314 315 288 258 332 334 295 227 254 251 264 183 192 214 193 212 208 224 223 262 225 49 10 75 149 176 211 243 228 185 235 187 194 150 127 66 149 175 170 181 189
329 327 324 319 314 280 234 260 310 311 280 267 237 226 237 219 224 203 195 212 212 230 224 228 195 48 356 249 205 245 244 329 99 207 242 207 226 172 147 186 157 128 173 174 184
326 326 326 327 292 336 263 252 237 286 277 255 214 223 215 214 231 240 194 214 231 227 232 251 164 107 299 275 257 215 357 79 253 249 205 346 251 278 161 179 204 150 168 184 180
322 320 320 319 308 273 6 307 331 260 275 151 183 190 200 210 215 223 189 218 229 229 172 256 171 201 204 260 253 10 224 230 228 257 148 244 228 168 188 176 132 89 86 26 356
317 314 325 288 204 254 296 301 261 233 239 161 126 196 193 204 220 207 217 208 234 245 222 267 146 230 221 251 270 301 269 279 263 253 261 227 225 172 176 160 113 106 88 75 57
311 306 293 300 236 342 280 245 225 244 231 153 177 192 207 196 211 228 191 202 225 227 243 222 183 233 266 226 247 240 270 254 220 223 235 333 211 111 115 124 118 122 103 97 94
311 304 243 216 239 247 270 223 238 245 247 300 181 182 201 211 204 222 192 210 213 228 230 236 205 224 204 243 258 222 247 266 259 359 6 336 315 168 129 124 140 124 108 75 35
310 261 231 226 223 254 231 222 220 257 314 335 185 251 190 213 208 214 223 204 210 223 232 231 211 223 235 209 235 243 257 256 272 69 37 245 335 349 149 154 155 126 133 112 84
307 282 248 200 167 207 228 238 235 250 282 310 288 229 244 199 213 199 213 217 222 211 230 252 219 336 345 320 201 234 260 284 293 192 171 247 177 205 175 156 147 130 140 124 121
253 244 118 132 167 205 223 235 240 262 287 258 271 271 287 246 207 220 211 216 219 221 213 236 205 319 156 257 201 211 231 264 282 286 300 281 66 113 127 156 161 139 141 133 131
287 257 144 164 199 220 227 238 260 263 262 209 268 287 304 301 283 225 227 220 211 220 220 228 249 207 176 251 192 221 232 242 254 272 273 292 301 168 164 160 181 132 143 151 133
276 280 153 196 228 227 228 245 253 252 248 241 237 262 280 286 299 294 255 233 241 217 242 225 217 243 241 249 190 205 206 227 244 257 244 262 253 108 125 152 155 134 137 109 108
273 252 166 203 245 266 255 240 233 243 273 244 255 252 249 246 267 278 275 282 9 120 24 1 274 265 241 237 205 236 207 214 246 264 277 274 278 153 168 178 124 126 129 135 137
243 270 11 231 208 234 253 267 264 227 214 236 255 262 251 254 256 251 251 265 153 78 283 240 252 276 280 265 229 271 257 205 218 245 255 268 289 57 113 139 136 148 142 151 147
330 341 341 300 296 299 255 246 268 277 228 204 239 242 234 249 257 258 256 232 265 169 218 244 253 262 278 281 275 279 226 275 277 270 290 305 294 336 47 319 151 163 165 150 142
357 338 300 294 291 262 260 270 241 261 278 267 227 226 235 257 305 263 276 295 273 207 187 226 236 227 245 252 266 270 272 229 262 273 283 274 315 14 44 63 140 164 176 171 121